TimeCDT,TemperatureF,Dew PointF,Humidity,Sea Level PressureIn,VisibilityMPH,Wind Direction,Wind SpeedMPH,Gust SpeedMPH,PrecipitationIn,Events,Conditions,WindDirDegrees,DateUTC
12:15 AM,73.4,64.4,73,30.09,10.0,Calm,Calm,-,N/A,,Clear,0,2013-08-28 05:15:00
12:36 AM,73.4,64.4,73,30.09,10.0,Calm,Calm,-,N/A,,Clear,0,2013-08-28 05:36:00
12:55 AM,73.4,64.4,73,30.09,10.0,SE,3.5,-,N/A,,Clear,140,2013-08-28 05:55:00
1:15 AM,71.6,64.4,78,30.08,10.0,SE,3.5,-,N/A,,Clear,130,2013-08-28 06:15:00
1:35 AM,71.6,64.4,78,30.08,10.0,SE,3.5,-,N/A,,Clear,130,2013-08-28 06:35:00
1:56 AM,71.6,64.4,78,30.08,10.0,SE,4.6,-,N/A,,Clear,140,2013-08-28 06:56:00
2:15 AM,71.6,64.4,78,30.07,10.0,SE,3.5,-,N/A,,Clear,130,2013-08-28 07:15:00
2:35 AM,71.6,64.4,78,30.07,10.0,Calm,Calm,-,N/A,,Partly Cloudy,0,2013-08-28 07:35:00
2:55 AM,69.8,64.4,83,30.07,10.0,Calm,Calm,-,N/A,,Partly Cloudy,0,2013-08-28 07:55:00
3:15 AM,69.8,64.4,83,30.07,10.0,Calm,Calm,-,N/A,,Mostly Cloudy,0,2013-08-28 08:15:00
3:35 AM,71.6,64.4,78,30.07,10.0,Calm,Calm,-,N/A,,Partly Cloudy,0,2013-08-28 08:35:00
3:55 AM,69.8,64.4,83,30.07,10.0,Calm,Calm,-,N/A,,Clear,0,2013-08-28 08:55:00
4:15 AM,69.8,64.4,83,30.06,10.0,Calm,Calm,-,N/A,,Clear,0,2013-08-28 09:15:00
4:35 AM,69.8,64.4,83,30.07,10.0,Calm,Calm,-,N/A,,Clear,0,2013-08-28 09:35:00
4:55 AM,69.8,64.4,83,30.07,10.0,Calm,Calm,-,N/A,,Clear,0,2013-08-28 09:55:00
5:15 AM,69.8,64.4,83,30.07,10.0,SSE,3.5,-,N/A,,Clear,160,2013-08-28 10:15:00
5:35 AM,69.8,64.4,83,30.07,10.0,Calm,Calm,-,N/A,,Clear,0,2013-08-28 10:35:00
5:55 AM,69.8,64.4,83,30.08,10.0,Calm,Calm,-,N/A,,Clear,0,2013-08-28 10:55:00
6:15 AM,68.0,64.4,88,30.08,10.0,Calm,Calm,-,N/A,,Clear,0,2013-08-28 11:15:00
6:35 AM,69.8,64.4,83,30.09,10.0,Calm,Calm,-,N/A,,Clear,0,2013-08-28 11:35:00
6:55 AM,69.8,64.4,83,30.09,10.0,Calm,Calm,-,N/A,,Clear,0,2013-08-28 11:55:00
7:15 AM,69.8,64.4,83,30.09,10.0,SSE,3.5,-,N/A,,Clear,150,2013-08-28 12:15:00
7:35 AM,69.8,64.4,83,30.09,10.0,SSE,4.6,-,N/A,,Clear,150,2013-08-28 12:35:00
7:55 AM,71.6,66.2,83,30.10,10.0,SSE,5.8,-,N/A,,Clear,150,2013-08-28 12:55:00
8:15 AM,73.4,66.2,78,30.10,10.0,South,3.5,-,N/A,,Clear,170,2013-08-28 13:15:00
8:35 AM,75.2,66.2,73,30.11,10.0,South,5.8,-,N/A,,Clear,170,2013-08-28 13:35:00
8:55 AM,77.0,66.2,69,30.11,10.0,South,4.6,-,N/A,,Clear,180,2013-08-28 13:55:00
9:15 AM,78.8,66.2,65,30.11,10.0,SSW,5.8,-,N/A,,Clear,200,2013-08-28 14:15:00
9:35 AM,80.6,66.2,61,30.12,10.0,SSW,4.6,-,N/A,,Clear,200,2013-08-28 14:35:00
9:55 AM,80.6,68.0,65,30.12,10.0,SW,5.8,-,N/A,,Clear,220,2013-08-28 14:55:00
10:15 AM,82.4,68.0,62,30.13,10.0,SSW,5.8,-,N/A,,Clear,210,2013-08-28 15:15:00
10:35 AM,82.4,69.8,66,30.13,10.0,WSW,5.8,-,N/A,,Clear,240,2013-08-28 15:35:00
11:15 AM,86.0,69.8,58,30.13,10.0,WSW,6.9,-,N/A,,Clear,240,2013-08-28 16:15:00
11:35 AM,86.0,69.8,58,30.13,10.0,SW,5.8,-,N/A,,Clear,230,2013-08-28 16:35:00
11:55 AM,87.8,69.8,55,30.12,10.0,SW,9.2,-,N/A,,Clear,220,2013-08-28 16:55:00
12:15 PM,87.8,69.8,55,30.12,10.0,SW,10.4,-,N/A,,Clear,220,2013-08-28 17:15:00
12:36 PM,87.8,69.8,55,30.11,10.0,SW,10.4,-,N/A,,Scattered Clouds,220,2013-08-28 17:36:00
12:55 PM,89.6,69.8,52,30.11,10.0,SSW,10.4,-,N/A,,Mostly Cloudy,210,2013-08-28 17:55:00
1:15 PM,89.6,69.8,52,30.11,10.0,SW,6.9,-,N/A,,Mostly Cloudy,230,2013-08-28 18:15:00
1:35 PM,87.8,69.8,55,30.11,10.0,WSW,6.9,-,N/A,,Scattered Clouds,240,2013-08-28 18:35:00
1:56 PM,89.6,68.0,49,30.10,10.0,WSW,6.9,-,N/A,,Scattered Clouds,240,2013-08-28 18:56:00
2:15 PM,89.6,68.0,49,30.10,10.0,SW,9.2,-,N/A,,Partly Cloudy,220,2013-08-28 19:15:00
2:35 PM,89.6,68.0,49,30.09,10.0,SW,10.4,-,N/A,,Clear,230,2013-08-28 19:35:00
2:56 PM,89.6,66.2,46,30.08,10.0,WSW,5.8,-,N/A,,Clear,240,2013-08-28 19:56:00
3:15 PM,89.6,68.0,49,30.08,10.0,West,6.9,-,N/A,,Partly Cloudy,260,2013-08-28 20:15:00
3:35 PM,89.6,68.0,49,30.07,10.0,West,8.1,-,N/A,,Partly Cloudy,260,2013-08-28 20:35:00
3:56 PM,89.6,68.0,49,30.07,10.0,WSW,8.1,-,N/A,,Scattered Clouds,240,2013-08-28 20:56:00
4:15 PM,89.6,68.0,49,30.07,10.0,WSW,8.1,-,N/A,,Scattered Clouds,240,2013-08-28 21:15:00
4:35 PM,89.6,68.0,49,30.06,10.0,WSW,6.9,-,N/A,,Scattered Clouds,250,2013-08-28 21:35:00
4:55 PM,89.6,66.2,46,30.06,10.0,West,10.4,-,N/A,,Clear,260,2013-08-28 21:55:00
5:15 PM,89.6,66.2,46,30.06,10.0,WNW,3.5,-,N/A,,Clear,290,2013-08-28 22:15:00
5:35 PM,89.6,68.0,49,30.06,10.0,West,6.9,-,N/A,,Clear,280,2013-08-28 22:35:00
5:55 PM,89.6,69.8,52,30.06,10.0,WNW,6.9,-,N/A,,Clear,290,2013-08-28 22:55:00
6:16 PM,89.6,68.0,49,30.06,10.0,West,6.9,-,N/A,,Clear,260,2013-08-28 23:16:00
6:35 PM,87.8,66.2,49,30.06,10.0,West,4.6,-,N/A,,Clear,270,2013-08-28 23:35:00
6:55 PM,87.8,66.2,49,30.06,10.0,West,5.8,-,N/A,,Clear,270,2013-08-28 23:55:00
7:15 PM,87.8,66.2,49,30.06,10.0,West,3.5,-,N/A,,Clear,270,2013-08-29 00:15:00
7:35 PM,86.0,66.2,51,30.06,10.0,Calm,Calm,-,N/A,,Clear,0,2013-08-29 00:35:00
7:55 PM,82.4,66.2,58,30.07,10.0,Calm,Calm,-,N/A,,Clear,0,2013-08-29 00:55:00
8:15 PM,82.4,66.2,58,30.07,10.0,Calm,Calm,-,N/A,,Clear,0,2013-08-29 01:15:00
8:36 PM,80.6,66.2,61,30.07,10.0,Calm,Calm,-,N/A,,Clear,0,2013-08-29 01:36:00
8:55 PM,78.8,66.2,65,30.07,10.0,Calm,Calm,-,N/A,,Clear,0,2013-08-29 01:55:00
9:15 PM,80.6,64.4,58,30.08,10.0,Calm,Calm,-,N/A,,Clear,0,2013-08-29 02:15:00
9:35 PM,78.8,66.2,65,30.08,10.0,Calm,Calm,-,N/A,,Clear,0,2013-08-29 02:35:00
9:55 PM,77.0,66.2,69,30.08,10.0,Calm,Calm,-,N/A,,Clear,0,2013-08-29 02:55:00
10:15 PM,77.0,66.2,69,30.08,10.0,Calm,Calm,-,N/A,,Clear,0,2013-08-29 03:15:00
10:35 PM,77.0,66.2,69,30.08,10.0,Calm,Calm,-,N/A,,Clear,0,2013-08-29 03:35:00
10:55 PM,75.2,66.2,73,30.08,10.0,Calm,Calm,-,N/A,,Clear,0,2013-08-29 03:55:00
11:15 PM,75.2,66.2,73,30.08,10.0,Calm,Calm,-,N/A,,Clear,0,2013-08-29 04:15:00
11:35 PM,75.2,66.2,73,30.08,10.0,Calm,Calm,-,N/A,,Clear,0,2013-08-29 04:35:00
11:55 PM,75.2,66.2,73,30.08,10.0,Calm,Calm,-,N/A,,Clear,0,2013-08-29 04:55:00